sat.trackr.live / text

‹ back to catalog

STARLINK-31046

NORAD 58552 · 2023-192X

PAYLOAD ACTIVE UNKNOWN

§ Identity

Operator
Country
US
Launch date
2023-12-08
Launch site
AFWTR
Launch vehicle
Mass (kg)
RCS (m²)

Purposes: comms

External: N2YO · Heavens-Above · Gunter

§ Orbital elements

Epoch: 2026-05-25T04:28:50.664864Z

Period
93.85 min
Inclination
53.1618°
Eccentricity
0.0001197
Mean motion
15.34394170 rev/d
Perigee alt
461.9 km
Apogee alt
463.5 km
Semi-major
6,840.9 km
B*
3.4869e-5
RAAN
66.9752°
Arg perigee
81.4364°
Mean anomaly
278.6774°
Rev number
13,770

§ Raw data

STARLINK-310461 58552U 23192X   26145.18669751  .00000802  00000+0  34869-4 0  99962 58552  53.1618  66.9752 0001197  81.4364 278.6774 15.34394170137706

JSON: /api/v1/satellites/58552 · /tle

For live sub-satellite position, see the globe view (requires WebGL).

§ Visibility from observer

Set your observer location to see the next 7 days of passes ≥ 10°. The values pass through the URL so the page stays shareable.

No JS? Fill the form by hand. The geolocation button needs JavaScript.